Time,TemperatureF,DewpointF,PressureIn,WindDirection,WindDirectionDegrees,WindSpeedMPH,WindSpeedGustMPH,Humidity,HourlyPrecipIn,Conditions,Clouds,dailyrainin,SoftwareType,DateUTC
2013-01-16 00:00:00,11.0,4.0,-100.00,North,1,24.0,36.0,72,-99.99,,,-99.99,,2013-01-16 05:00:00,
2013-01-16 00:42:00,11.0,4.0,-100.00,North,1,24.0,36.0,72,-99.99,,,-99.99,,2013-01-16 05:42:00,
2013-01-16 00:53:00,11.0,4.0,-100.00,North,1,24.0,36.0,72,-99.99,,,-99.99,,2013-01-16 05:53:00,
2013-01-16 01:00:00,10.0,4.0,-100.00,North,11,19.0,31.0,74,-99.99,,,-99.99,,2013-01-16 06:00:00,
2013-01-16 01:43:00,10.0,4.0,-100.00,North,11,19.0,31.0,74,-99.99,,,-99.99,,2013-01-16 06:43:00,
2013-01-16 01:53:00,10.0,4.0,-100.00,North,11,19.0,31.0,74,-99.99,,,-99.99,,2013-01-16 06:53:00,
2013-01-16 02:00:00,11.0,4.0,-100.00,North,8,28.0,35.0,75,-99.99,,,-99.99,,2013-01-16 07:00:00,
2013-01-16 02:42:00,11.0,4.0,-100.00,North,8,28.0,35.0,75,-99.99,,,-99.99,,2013-01-16 07:42:00,
2013-01-16 02:52:00,11.0,4.0,-100.00,North,8,28.0,35.0,75,-99.99,,,-99.99,,2013-01-16 07:52:00,
2013-01-16 03:00:00,11.0,4.0,-100.00,North,9,27.0,34.0,74,-99.99,,,-99.99,,2013-01-16 08:00:00,
2013-01-16 03:42:00,11.0,4.0,-100.00,North,9,27.0,34.0,74,-99.99,,,-99.99,,2013-01-16 08:42:00,
2013-01-16 03:53:00,11.0,4.0,-100.00,North,9,27.0,34.0,74,-99.99,,,-99.99,,2013-01-16 08:53:00,
2013-01-16 04:00:00,11.0,5.0,-100.00,NNE,12,25.0,38.0,75,-99.99,,,-99.99,,2013-01-16 09:00:00,
2013-01-16 04:43:00,11.0,5.0,-100.00,NNE,12,25.0,38.0,75,-99.99,,,-99.99,,2013-01-16 09:43:00,
2013-01-16 04:53:00,11.0,5.0,-100.00,NNE,12,25.0,38.0,75,-99.99,,,-99.99,,2013-01-16 09:53:00,
2013-01-16 05:00:00,13.0,6.0,-100.00,NNE,13,26.0,32.0,73,-99.99,,,-99.99,,2013-01-16 10:00:00,
2013-01-16 05:43:00,13.0,6.0,-100.00,NNE,13,26.0,32.0,73,-99.99,,,-99.99,,2013-01-16 10:43:00,
2013-01-16 05:53:00,13.0,6.0,-100.00,NNE,13,26.0,32.0,73,-99.99,,,-99.99,,2013-01-16 10:53:00,
2013-01-16 06:00:00,14.0,6.0,-100.00,North,9,23.0,34.0,69,-99.99,,,-99.99,,2013-01-16 11:00:00,
2013-01-16 06:43:00,14.0,6.0,-100.00,North,9,23.0,34.0,69,-99.99,,,-99.99,,2013-01-16 11:43:00,
2013-01-16 06:53:00,14.0,6.0,-100.00,North,9,23.0,34.0,69,-99.99,,,-99.99,,2013-01-16 11:53:00,
2013-01-16 07:00:00,17.0,7.0,-100.00,North,4,23.0,33.0,63,-99.99,,,-99.99,,2013-01-16 12:00:00,
2013-01-16 07:43:00,17.0,7.0,-100.00,North,4,23.0,33.0,63,-99.99,,,-99.99,,2013-01-16 12:43:00,
2013-01-16 07:53:00,17.0,7.0,-100.00,North,4,23.0,33.0,63,-99.99,,,-99.99,,2013-01-16 12:53:00,
2013-01-16 08:00:00,18.0,7.0,-100.00,North,1,20.0,27.0,63,-99.99,,,-99.99,,2013-01-16 13:00:00,
2013-01-16 08:43:00,18.0,7.0,-100.00,North,1,20.0,27.0,63,-99.99,,,-99.99,,2013-01-16 13:43:00,
2013-01-16 08:53:00,18.0,7.0,-100.00,North,1,20.0,27.0,63,-99.99,,,-99.99,,2013-01-16 13:53:00,
2013-01-16 09:00:00,22.0,8.0,-100.00,NNW,342,16.0,26.0,54,-99.99,,,-99.99,,2013-01-16 14:00:00,
2013-01-16 09:43:00,22.0,8.0,-100.00,NNW,342,16.0,26.0,54,-99.99,,,-99.99,,2013-01-16 14:43:00,
2013-01-16 09:53:00,22.0,8.0,-100.00,NNW,342,16.0,26.0,54,-99.99,,,-99.99,,2013-01-16 14:53:00,
2013-01-16 10:00:00,22.0,9.0,-100.00,North,357,13.0,24.0,56,-99.99,,,-99.99,,2013-01-16 15:00:00,
2013-01-16 10:43:00,22.0,9.0,-100.00,North,357,13.0,24.0,56,-99.99,,,-99.99,,2013-01-16 15:43:00,
2013-01-16 10:53:00,22.0,9.0,-100.00,North,357,13.0,24.0,56,-99.99,,,-99.99,,2013-01-16 15:53:00,
2013-01-16 11:00:00,24.0,9.0,-100.00,NNW,341,3.0,9.0,52,-99.99,,,-99.99,,2013-01-16 16:00:00,
2013-01-16 11:43:00,24.0,9.0,-100.00,NNW,341,3.0,9.0,52,-99.99,,,-99.99,,2013-01-16 16:43:00,
2013-01-16 11:53:00,24.0,9.0,-100.00,NNW,341,3.0,9.0,52,-99.99,,,-99.99,,2013-01-16 16:53:00,
2013-01-16 12:00:00,27.0,11.0,-100.00,NE,36,2.0,8.0,51,-99.99,,,-99.99,,2013-01-16 17:00:00,
2013-01-16 12:44:00,27.0,11.0,-100.00,NE,36,2.0,8.0,51,-99.99,,,-99.99,,2013-01-16 17:44:00,
2013-01-16 12:53:00,27.0,11.0,-100.00,NE,36,2.0,8.0,51,-99.99,,,-99.99,,2013-01-16 17:53:00,
2013-01-16 13:00:00,27.0,13.0,-100.00,West,263,3.0,12.0,54,-99.99,,,-99.99,,2013-01-16 18:00:00,
2013-01-16 13:43:00,27.0,13.0,-100.00,West,263,3.0,12.0,54,-99.99,,,-99.99,,2013-01-16 18:43:00,
2013-01-16 13:53:00,27.0,13.0,-100.00,West,263,3.0,12.0,54,-99.99,,,-99.99,,2013-01-16 18:53:00,
2013-01-16 14:00:00,29.0,15.0,-100.00,NNW,338,5.0,14.0,53,-99.99,,,-99.99,,2013-01-16 19:00:00,
2013-01-16 14:43:00,29.0,15.0,-100.00,NNW,338,5.0,14.0,53,-99.99,,,-99.99,,2013-01-16 19:43:00,
2013-01-16 14:53:00,29.0,15.0,-100.00,NNW,338,5.0,14.0,53,-99.99,,,-99.99,,2013-01-16 19:53:00,
2013-01-16 15:00:00,30.0,16.0,-100.00,NNE,25,4.0,10.0,54,-99.99,,,-99.99,,2013-01-16 20:00:00,
2013-01-16 15:43:00,30.0,16.0,-100.00,NNE,25,4.0,10.0,54,-99.99,,,-99.99,,2013-01-16 20:43:00,
2013-01-16 15:53:00,30.0,16.0,-100.00,NNE,25,4.0,10.0,54,-99.99,,,-99.99,,2013-01-16 20:53:00,
2013-01-16 16:00:00,33.0,17.0,-100.00,NW,310,3.0,14.0,51,-99.99,,,-99.99,,2013-01-16 21:00:00,
2013-01-16 16:43:00,33.0,17.0,-100.00,NW,310,3.0,14.0,51,-99.99,,,-99.99,,2013-01-16 21:43:00,
2013-01-16 16:53:00,33.0,17.0,-100.00,NW,310,3.0,14.0,51,-99.99,,,-99.99,,2013-01-16 21:53:00,
2013-01-16 17:00:00,33.0,18.0,-100.00,WSW,237,3.0,13.0,53,-99.99,,,-99.99,,2013-01-16 22:00:00,
2013-01-16 17:43:00,33.0,18.0,-100.00,WSW,237,3.0,13.0,53,-99.99,,,-99.99,,2013-01-16 22:43:00,
2013-01-16 17:53:00,33.0,18.0,-100.00,WSW,237,3.0,13.0,53,-99.99,,,-99.99,,2013-01-16 22:53:00,
2013-01-16 18:00:00,32.0,19.0,-100.00,SW,214,3.0,10.0,58,-99.99,,,-99.99,,2013-01-16 23:00:00,
2013-01-16 18:43:00,32.0,19.0,-100.00,SW,214,3.0,10.0,58,-99.99,,,-99.99,,2013-01-16 23:43:00,
2013-01-16 18:53:00,32.0,19.0,-100.00,SW,214,3.0,10.0,58,-99.99,,,-99.99,,2013-01-16 23:53:00,
2013-01-16 19:00:00,29.0,19.0,-100.00,SSW,205,3.0,6.0,63,-99.99,,,-99.99,,2013-01-17 00:00:00,
2013-01-16 19:42:00,29.0,19.0,-100.00,SSW,205,3.0,6.0,63,-99.99,,,-99.99,,2013-01-17 00:42:00,
2013-01-16 19:52:00,29.0,19.0,-100.00,SSW,205,3.0,6.0,63,-99.99,,,-99.99,,2013-01-17 00:52:00,
2013-01-16 20:00:00,28.0,19.0,-100.00,NE,43,1.0,4.0,68,-99.99,,,-99.99,,2013-01-17 01:00:00,
2013-01-16 20:43:00,28.0,19.0,-100.00,NE,43,1.0,4.0,68,-99.99,,,-99.99,,2013-01-17 01:43:00,
2013-01-16 20:52:00,28.0,19.0,-100.00,NE,43,1.0,4.0,68,-99.99,,,-99.99,,2013-01-17 01:52:00,
2013-01-16 21:00:00,26.0,17.0,-100.00,NE,46,5.0,7.0,69,-99.99,,,-99.99,,2013-01-17 02:00:00,
2013-01-16 22:00:00,25.0,12.0,-100.00,NNE,15,7.0,11.0,56,-99.99,,,-99.99,,2013-01-17 03:00:00,
2013-01-16 22:43:00,25.0,12.0,-100.00,NNE,15,7.0,11.0,56,-99.99,,,-99.99,,2013-01-17 03:43:00,
2013-01-16 22:53:00,25.0,12.0,-100.00,NNE,15,7.0,11.0,56,-99.99,,,-99.99,,2013-01-17 03:53:00,
2013-01-16 23:00:00,25.0,9.0,-100.00,NNE,21,6.0,10.0,50,-99.99,,,-99.99,,2013-01-17 04:00:00,
2013-01-16 23:43:00,25.0,9.0,-100.00,NNE,21,6.0,10.0,50,-99.99,,,-99.99,,2013-01-17 04:43:00,
2013-01-16 23:52:00,25.0,9.0,-100.00,NNE,21,6.0,10.0,50,-99.99,,,-99.99,,2013-01-17 04:52:00,